Date String (YYYY-MM-DD hh:mm:ss) UTC,Instrument flags,Ambient pressure (hPa),Sample flow (lpm),Bypass flow (lpm),Sample temperature (°C),Ambient temperature (°C),ASC tube jacket temperature (°C),LED temperature (°C),Box temperature (°C),Sample RH (%),Span deviation,Mass concentration (μg/m³),Mass concentration (μg/m³),Mass concentration (μg/m³)
DateTimeUTC,F1_M11,P_M11,Q1_M11,Q2_M11,T1_M11,T2_M11,T3_M11,T4_M11,T5_M11,U1_M11,ZSPAN_M11,X2_M11,X0_M11,X1_M11
2023-04-22 14:00:00,,0834.4,5.00,0.00,22.5,20.7,00.0,31.0,23.9,14.1,0000.0,0006.07,0009.67,0005.45
2023-04-22 14:01:00,,0834.5,5.00,0.00,22.4,20.7,00.0,31.0,23.8,14.1,0000.0,0006.07,0009.74,0005.47
2023-04-22 14:02:00,,0834.5,5.01,0.00,22.5,21.2,00.0,30.9,24.1,14.1,0000.0,0006.07,0009.53,0005.49
2023-04-22 14:03:00,,0834.5,4.99,0.00,22.6,22.3,00.0,30.9,24.5,14.0,0000.0,0006.11,0009.60,0005.51
2023-04-22 14:04:00,,0834.5,4.99,0.00,22.7,22.7,00.0,30.9,24.6,14.0,0000.0,0006.14,0009.92,0005.53
2023-04-22 14:05:00,,0834.5,5.00,0.00,22.7,22.4,00.0,31.0,24.4,13.9,0000.0,0006.16,0009.95,0005.56
2023-04-22 14:06:00,,0834.4,5.00,0.00,22.7,22.2,00.0,31.0,24.3,13.9,0000.0,0006.21,0010.06,0005.58
2023-04-22 14:07:00,,0834.4,5.00,0.00,22.7,21.9,00.0,31.0,24.2,13.9,0000.0,0006.22,0010.20,0005.59
2023-04-22 14:08:00,,0834.4,5.00,0.00,22.6,21.7,00.0,31.0,24.1,13.9,0000.0,0006.24,0009.77,0005.61
2023-04-22 14:09:00,,0834.4,4.99,0.00,22.6,21.4,00.0,31.0,24.0,14.0,0000.0,0006.24,0009.76,0005.63
2023-04-22 14:10:00,,0834.4,5.00,0.00,22.6,21.2,00.0,31.0,24.0,14.0,0000.0,0006.27,0009.77,0005.66
2023-04-22 14:11:00,,0834.4,5.01,0.00,22.5,21.0,00.0,31.0,23.9,14.2,0000.0,0006.29,0009.79,0005.68
2023-04-22 14:12:00,,0834.4,5.00,0.00,22.5,20.9,00.0,31.0,23.9,14.1,0000.0,0006.28,0009.68,0005.69
2023-04-22 14:13:00,,0834.4,5.00,0.00,22.4,20.8,00.0,31.0,23.9,14.1,0000.0,0006.28,0009.67,0005.70
2023-04-22 14:14:00,,0834.4,5.00,0.00,22.4,20.7,00.0,31.0,23.9,14.0,0000.0,0006.30,0009.74,0005.72
2023-04-22 14:15:00,,0834.5,4.99,0.00,22.4,20.5,00.0,30.9,23.8,14.0,0000.0,0006.29,0010.05,0005.73
2023-04-22 14:16:00,,0834.5,4.99,0.00,22.3,20.4,00.0,30.9,23.8,14.2,0000.6,0006.33,0010.18,0005.74
2023-04-22 14:17:00,,0834.5,5.01,0.00,22.3,20.3,00.0,30.9,23.7,14.3,0000.4,0006.34,0010.21,0005.73
2023-04-22 14:18:00,,0834.5,5.01,0.00,22.3,20.5,00.0,30.8,23.8,14.3,0000.1,0006.33,0010.04,0005.73
2023-04-22 14:19:00,,0834.5,4.99,0.00,22.4,21.5,00.0,30.8,24.2,14.2,-000.1,0006.30,0009.86,0005.70
2023-04-22 14:20:00,,0834.5,5.00,0.00,22.5,22.6,00.0,30.8,24.5,13.9,-000.3,0006.30,0009.88,0005.68
2023-04-22 14:21:00,,0834.5,4.99,0.00,22.6,22.6,00.0,30.8,24.4,13.7,-000.2,0006.27,0009.88,0005.64
2023-04-22 14:22:00,,0834.5,4.98,0.00,22.6,22.4,00.0,30.9,24.3,13.6,-000.1,0006.22,0009.85,0005.61
2023-04-22 14:23:00,,0834.5,5.00,0.00,22.6,22.0,00.0,30.9,24.2,13.5,0000.0,0006.18,0009.82,0005.58
2023-04-22 14:24:00,,0834.5,5.00,0.00,22.6,21.8,00.0,30.9,24.1,13.4,-000.0,0006.15,0009.88,0005.56
2023-04-22 14:25:00,,0834.5,5.00,0.00,22.5,21.5,00.0,30.9,24.0,13.5,0000.0,0006.15,0010.07,0005.54
2023-04-22 14:26:00,,0834.5,5.00,0.00,22.5,21.2,00.0,30.9,24.0,13.6,0000.0,0006.13,0009.46,0005.51
2023-04-22 14:27:00,,0834.5,5.00,0.00,22.4,21.0,00.0,30.9,23.9,13.6,0000.0,0006.09,0009.33,0005.48
2023-04-22 14:28:00,,0834.5,5.00,0.00,22.4,20.9,00.0,30.9,23.8,13.4,0000.0,0006.07,0009.35,0005.45
2023-04-22 14:29:00,,0834.5,5.00,0.00,22.4,20.8,00.0,30.9,23.8,13.3,0000.0,0006.06,0009.39,0005.42
2023-04-22 14:30:00,,0834.5,5.00,0.00,22.4,20.8,00.0,30.9,23.8,13.1,0000.0,0006.10,0009.55,0005.42
2023-04-22 14:31:00,,0834.5,5.02,0.00,22.4,21.5,00.0,30.8,24.1,12.9,0000.0,0006.12,0009.66,0005.42
2023-04-22 14:32:00,,0835.0,5.00,0.00,22.6,22.6,00.0,30.8,24.5,12.9,0000.0,0006.15,0009.69,0005.43
2023-04-22 14:33:00,,0835.1,5.00,0.00,22.7,23.5,00.0,30.8,24.8,12.9,0000.0,0006.18,0009.64,0005.45
2023-04-22 14:34:00,,0835.0,4.98,0.00,22.8,23.2,00.0,30.9,24.6,12.8,0000.0,0006.23,0009.69,0005.49
2023-04-22 14:35:00,,0834.7,5.00,0.00,22.8,22.9,00.0,31.0,24.5,12.9,0000.0,0006.28,0009.70,0005.51
2023-04-22 14:36:00,,0834.5,5.02,0.00,22.8,22.5,00.0,31.0,24.4,13.0,0000.0,0006.26,0009.42,0005.53
2023-04-22 14:37:00,,0834.9,4.98,0.00,22.8,22.3,00.0,31.0,24.3,12.9,0000.0,0006.28,0009.29,0005.57
2023-04-22 14:38:00,,0835.0,5.00,0.00,22.7,22.0,00.0,31.0,24.3,12.8,0000.0,0006.31,0009.31,0005.60
2023-04-22 14:39:00,,0835.1,5.00,0.00,22.7,21.7,00.0,31.1,24.2,12.9,0000.0,0006.34,0009.38,0005.65
2023-04-22 14:40:00,,0835.0,5.00,0.00,22.7,21.6,00.0,31.1,24.2,12.9,0000.0,0006.38,0009.50,0005.69
2023-04-22 14:41:00,,0834.6,5.01,0.00,22.7,21.4,00.0,31.1,24.1,12.9,0000.0,0006.41,0009.59,0005.71
2023-04-22 14:42:00,,0834.5,5.00,0.00,22.6,21.2,00.0,31.1,24.1,12.9,0000.0,0006.44,0009.55,0005.75
2023-04-22 14:43:00,,0834.6,5.00,0.00,22.6,21.1,00.0,31.0,24.0,12.9,0000.0,0006.45,0009.56,0005.79
2023-04-22 14:44:00,,0834.5,4.99,0.00,22.6,20.9,00.0,31.0,24.0,13.0,0000.0,0006.46,0009.52,0005.80
2023-04-22 14:45:00,,0834.5,5.01,0.00,22.6,20.9,00.0,31.0,24.0,13.0,0000.0,0006.45,0009.66,0005.80
2023-04-22 14:46:00,,0834.5,5.01,0.00,22.5,20.9,00.0,31.0,24.0,13.1,0000.0,0006.46,0009.79,0005.79
2023-04-22 14:47:00,,0834.5,5.01,0.00,22.5,20.9,00.0,31.0,23.9,13.0,0000.0,0006.47,0010.02,0005.79
2023-04-22 14:48:00,,0834.5,5.00,0.00,22.5,20.9,00.0,31.0,23.9,12.9,0000.0,0006.46,0010.07,0005.78
2023-04-22 14:49:00,,0834.5,5.00,0.00,22.5,21.4,00.0,30.9,24.2,12.8,0000.0,0006.48,0010.23,0005.78
2023-04-22 14:50:00,,0834.5,5.00,0.00,22.7,22.5,00.0,30.9,24.6,12.6,0000.0,0006.46,0010.13,0005.78
2023-04-22 14:51:00,,0834.5,5.00,0.00,22.8,22.9,00.0,30.9,24.7,12.5,0000.0,0006.45,0010.07,0005.77
2023-04-22 14:52:00,,0834.5,4.99,0.00,22.8,22.7,00.0,31.0,24.6,12.4,0000.0,0006.42,0009.92,0005.76
2023-04-22 14:53:00,,0834.5,5.00,0.00,22.8,22.4,00.0,31.1,24.4,12.5,0000.0,0006.43,0009.87,0005.75
2023-04-22 14:54:00,,0834.4,5.00,0.00,22.8,22.1,00.0,31.1,24.3,12.6,0000.0,0006.38,0009.78,0005.73
2023-04-22 14:55:00,,0834.4,5.00,0.00,22.8,21.9,00.0,31.1,24.3,12.5,0000.0,0006.41,0009.96,0005.73
2023-04-22 14:56:00,,0834.4,5.00,0.00,22.7,21.7,00.0,31.1,24.3,12.6,0000.0,0006.37,0009.73,0005.72
2023-04-22 14:57:00,,0834.4,5.00,0.00,22.7,21.5,00.0,31.1,24.2,12.8,0000.0,0006.35,0009.58,0005.72
2023-04-22 14:58:00,,0834.5,5.00,0.00,22.7,21.3,00.0,31.1,24.2,12.9,0000.0,0006.33,0009.41,0005.71
2023-04-22 14:59:00,,0834.4,5.01,0.00,22.7,21.3,00.0,31.1,24.2,13.0,0000.0,0006.39,0009.49,0005.72
